GFSGL_prec_cloud_096.txt.gz
Cloud_Cover
100 75 17 72 2 0 0 0 0 0 0 0 0 0 7 0 6 21 5 5 0 0 0 0 0 0 0 0 0 0 0 0 0 0 4 5 7 34 5 5 5 2 9
51 70 45 69 64 45 0 0 0 0 0 0 0 0 0 1 0 0 3 5 6 2 0 0 0 0 0 0 0 0 0 0 0 0 0 0 5 9 68 72 9 22 5
30 25 41 12 60 32 61 10 0 0 0 0 0 4 0 0 0 0 0 2 5 10 20 0 0 0 0 0 0 0 0 0 0 0 2 3 0 3 48 43 45 44 17
100 87 23 20 3 29 0 99 65 2 0 0 0 0 1 2 5 2 0 1 5 5 1 0 0 0 0 0 1 0 0 0 0 0 0 0 0 0 5 17 7 5 5
100 100 98 33 29 8 6 7 68 17 0 0 0 0 0 0 4 5 5 4 5 5 5 0 0 0 0 0 0 0 0 0 0 0 0 0 0 1 0 4 3 5 5
100 100 100 99 100 97 62 70 18 0 0 0 0 0 0 0 0 5 5 5 5 10 5 5 0 0 0 1 0 0 0 0 0 0 0 0 0 0 0 0 0 2 0
100 100 100 96 76 52 84 100 83 58 26 10 1 0 0 0 0 0 0 5 5 5 15 5 3 0 0 0 50 25 44 2 14 0 0 0 0 0 0 2 0 2 4
100 100 100 100 96 69 85 30 44 91 99 80 42 28 6 0 0 0 0 0 5 1 5 4 0 0 0 0 0 0 0 0 2 5 5 1 0 0 0 0 0 1 4
25 87 100 100 100 89 87 98 96 98 58 54 100 91 57 12 0 0 5 0 0 0 0 0 0 0 0 0 0 0 0 0 0 5 5 7 5 0 44 4 6 84 9
0 14 100 86 100 100 100 98 100 100 100 73 64 100 91 35 15 0 14 0 0 0 0 0 0 0 0 0 0 0 0 0 0 0 5 5 48 5 36 8 5 5 5
0 0 55 100 100 100 100 100 100 100 100 100 100 100 100 98 68 14 0 0 0 0 0 0 0 0 0 0 11 0 0 4 0 0 5 5 18 5 5 17 100 95 40
0 0 1 97 100 100 100 88 100 100 100 100 100 100 100 100 100 75 12 74 0 0 0 0 0 0 0 0 44 0 0 68 0 0 2 5 5 5 6 41 83 40 100
0 0 0 11 100 100 100 82 67 78 100 91 97 100 100 100 100 95 100 98 76 4 0 0 0 0 0 65 81 0 73 4 0 0 0 2 5 1 5 9 26 18 32
0 0 0 0 5 41 96 100 57 93 22 60 90 73 99 100 100 100 99 100 100 100 10 2 0 1 25 15 21 34 1 4 6 2 0 0 4 0 0 0 5 67 43
0 0 0 0 0 0 3 5 10 74 100 72 70 75 93 95 100 98 100 72 99 100 100 100 18 0 0 4 7 5 8 6 7 5 6 3 4 3 2 1 2 5 49
0 0 0 0 0 0 0 3 13 82 88 90 95 85 47 100 84 81 97 100 100 100 96 97 100 100 83 40 100 77 92 100 94 100 50 45 5 5 9 5 0 5 2
0 0 0 0 0 0 0 0 5 5 84 82 100 97 100 98 99 100 100 100 100 100 100 95 100 100 92 69 88 100 100 100 100 100 100 100 77 63 5 5 5 0 0
4 0 0 0 0 0 0 0 0 2 5 8 74 67 52 100 100 100 100 100 100 100 99 90 87 74 100 81 100 100 100 100 100 100 100 100 100 100 100 68 15 5 5
68 6 1 17 5 1 0 0 0 0 5 9 57 70 52 77 100 100 100 100 100 80 100 100 84 52 100 99 100 98 100 100 100 100 100 100 100 100 100 43 20 12 25
100 99 76 100 76 20 1 0 0 0 0 5 53 16 85 100 88 71 99 100 100 100 100 100 100 100 100 100 100 100 100 100 100 100 100 100 100 100 100 98 86 83 63
100 100 100 100 83 27 12 0 0 0 0 4 50 36 99 100 97 100 100 100 100 100 100 95 100 100 100 100 100 100 100 100 100 100 100 100 100 100 100 100 100 100 100
100 100 100 100 66 83 57 79 38 14 6 8 8 71 50 95 100 100 100 100 100 100 100 100 100 100 100 100 100 100 100 100 100 100 100 100 100 100 100 100 100 100 100
100 100 100 100 100 100 94 58 62 90 29 50 72 95 90 98 100 100 100 100 100 100 100 100 100 100 100 100 100 100 100 100 100 100 100 100 100 100 100 100 100 100 100
100 100 100 100 100 100 100 98 100 100 100 100 100 98 100 100 100 100 100 100 100 100 100 100 100 100 100 100 100 100 100 100 100 100 100 100 100 100 100 100 100 100 100
100 100 100 100 100 100 100 100 100 100 100 100 100 100 100 100 100 100 100 100 100 100 100 100 100 100 100 100 100 100 100 100 100 100 100 100 100 100 100 100 100 96 100
100 100 100 100 100 100 100 100 100 100 100 100 100 100 100 100 100 100 100 100 100 100 100 100 100 100 100 100 100 100 100 100 100 100 100 100 99 100 100 100 100 97 82

GFSGL_prec_cloud_102.txt.gz
Cloud_Cover
57 1 0 0 0 0 0 0 0 4 60 100 100 100 10 0 0 0 13 42 2 0 0 0 0 0 0 0 7 5 4 0 0 5 5 5 5 5 5 41 5 1 0
100 29 75 0 0 0 0 0 0 0 0 20 100 94 13 0 0 0 0 7 4 0 0 0 0 0 0 0 0 0 0 0 0 0 0 0 3 0 3 12 5 4 0
100 100 100 84 5 0 0 0 0 0 0 0 0 0 0 11 4 5 0 0 0 69 0 0 0 0 0 0 0 0 0 0 0 0 0 0 0 0 0 1 0 1 5
100 100 100 100 88 5 3 1 0 0 0 0 0 0 0 0 0 5 59 4 0 0 1 0 0 0 0 0 0 0 0 0 0 0 0 0 0 0 0 1 0 0 0
100 100 100 95 33 2 5 5 5 3 0 0 0 0 0 0 0 1 0 7 9 3 0 0 21 4 22 0 0 0 0 0 0 0 0 0 0 0 0 1 0 0 0
100 100 100 100 94 51 96 79 5 4 0 0 0 0 0 0 0 0 0 32 54 2 5 3 21 0 26 2 0 0 0 0 0 0 0 1 0 5 5 5 5 0 0
100 100 100 100 95 100 100 67 99 72 18 2 0 0 0 0 0 0 0 0 0 0 37 11 100 26 0 25 0 0 0 0 0 0 4 2 5 1 0 0 1 0 2
100 92 90 79 83 84 100 100 100 100 100 19 3 0 0 0 0 0 0 0 0 0 0 0 1 3 4 0 0 0 0 0 0 0 5 5 4 5 3 3 3 4 5
100 100 98 98 99 94 100 100 100 100 100 99 16 14 6 5 0 28 87 2 0 0 0 0 0 0 0 0 0 0 0 0 0 0 2 5 5 5 4 7 5 5 24
98 89 12 5 95 100 100 100 100 100 100 100 100 31 5 0 4 0 17 15 0 0 0 0 0 0 0 0 0 0 0 0 0 0 0 3 5 5 17 7 5 5 5
0 0 12 3 92 94 74 98 81 99 100 100 100 72 18 3 2 33 12 0 2 5 0 0 0 0 0 0 0 0 0 1 0 0 0 0 0 5 5 5 5 5 11
0 0 0 0 0 85 100 99 12 21 74 84 100 100 78 30 14 7 25 66 22 71 47 7 0 9 27 37 56 3 0 0 0 0 0 0 0 0 0 2 5 5 5
0 0 0 0 0 0 0 0 0 0 12 21 51 82 100 62 5 32 56 92 46 58 2 21 58 10 16 38 10 0 0 0 0 0 0 0 0 0 0 3 4 5 5
0 0 0 0 0 0 0 0 0 0 0 12 45 71 48 44 42 22 91 100 98 100 100 98 100 100 100 83 20 0 0 0 0 0 0 0 0 0 0 0 0 0 0
0 0 0 0 0 0 0 0 0 0 0 0 0 3 90 87 28 6 31 99 100 100 100 100 100 100 94 78 97 55 1 0 0 0 0 0 0 0 0 0 0 0 0
1 0 0 0 0 0 0 0 0 0 0 0 0 0 3 100 69 99 100 100 100 100 100 98 100 100 95 52 20 35 33 6 0 4 0 0 0 0 0 0 0 6 8
54 15 5 0 0 0 0 0 0 0 0 0 0 0 0 12 100 88 100 100 100 83 89 48 26 76 100 38 6 5 5 100 100 89 100 100 100 84 5 11 4 22 81
76 28 6 4 0 0 0 0 0 0 0 0 0 0 4 0 4 84 100 100 85 38 97 17 52 64 48 18 5 5 5 20 77 100 100 100 100 100 100 100 93 100 96
99 64 30 30 13 0 0 0 0 0 0 0 0 0 5 0 90 100 100 100 100 100 84 95 96 98 100 100 19 50 47 63 100 100 100 100 100 100 100 44 77 100 100
66 100 100 100 99 72 1 0 0 0 0 0 0 0 0 0 2 2 6 36 100 100 100 100 100 100 100 100 100 91 33 53 98 100 100 100 100 100 100 99 93 100 100
41 4 94 100 100 100 96 100 2 0 0 0 0 0 23 62 17 21 26 0 1 88 100 100 100 100 100 100 100 87 44 100 100 100 100 100 100 100 100 100 100 100 100
88 8 99 78 100 100 100 100 18 1 16 32 0 0 71 43 96 100 7 0 22 100 100 100 100 100 100 100 100 100 100 100 100 100 100 100 100 100 100 100 100 100 100
44 74 86 90 100 100 100 100 98 45 87 30 14 3 45 100 100 88 100 28 22 93 100 100 100 100 100 100 100 100 100 100 94 100 100 100 100 100 100 100 100 100 100
19 40 66 58 99 100 100 100 100 100 83 48 45 100 100 100 100 82 17 16 36 100 100 100 100 100 100 100 100 100 100 100 98 60 100 100 100 100 100 99 97 100 100
71 76 41 47 100 100 100 100 76 100 94 100 100 100 100 94 84 86 95 58 99 100 100 100 100 100 100 100 100 100 100 100 100 95 100 100 100 100 100 100 100 100 100
100 98 83 96 46 100 100 100 100 100 100 100 100 100 100 99 80 98 100 100 100 100 100 100 100 100 100 100 100 100 100 100 100 100 100 100 100 100 100 100 100 100 100

GFSGL_prec_cloud_105.txt.gz
Cloud_Cover
100 100 100 100 90 18 5 2 0 0 15 100 100 97 100 14 4 1 3 0 0 0 0 0 0 0 0 0 0 0 0 0 0 0 2 2 2 5 5 3 2 0 0
100 100 99 100 100 98 94 2 5 0 0 36 22 100 51 9 13 0 0 0 0 0 0 0 0 0 0 0 0 0 0 0 0 0 0 0 0 0 2 0 0 0 0
100 100 100 100 100 100 100 100 6 5 5 5 8 48 4 0 0 0 0 0 0 0 0 0 0 0 0 0 0 0 0 0 0 0 0 0 0 0 0 0 0 0 0
100 100 100 100 100 99 100 100 100 15 20 18 19 3 0 0 0 0 0 3 0 5 0 0 0 0 0 0 0 0 0 0 0 0 0 0 0 0 0 0 0 0 2
100 100 100 100 100 100 47 86 100 52 5 92 93 18 0 0 0 0 0 0 0 5 5 5 1 0 75 76 6 0 0 0 0 0 0 0 0 0 0 0 0 2 0
100 100 100 100 100 100 100 100 100 9 5 8 100 91 99 5 3 0 0 0 0 0 0 5 10 49 7 13 2 0 0 0 0 0 0 2 0 0 0 63 5 2 4
100 100 100 100 100 100 100 100 100 100 86 41 14 6 75 9 4 2 0 0 0 0 0 0 3 4 17 5 5 38 9 0 0 0 0 0 0 0 0 5 22 4 0
79 100 100 100 100 100 100 100 100 100 100 100 100 100 100 99 41 13 64 5 4 0 0 0 0 0 0 0 1 0 2 0 0 0 0 0 0 0 0 5 5 7 5
16 93 100 100 100 100 100 100 100 100 100 100 100 100 100 92 78 64 95 88 5 13 0 0 0 0 0 0 0 0 0 0 0 1 5 4 0 3 2 5 8 5 4
0 3 95 100 100 100 100 100 98 93 100 100 100 100 100 100 100 91 85 100 88 40 6 0 0 0 0 0 0 0 0 0 0 0 0 0 3 1 5 5 5 5 5
0 0 9 94 100 100 100 100 100 68 100 100 100 100 100 100 100 100 97 36 88 100 100 30 1 0 0 0 10 0 0 0 0 0 5 4 4 0 0 0 1 5 0
0 0 0 16 100 100 98 100 100 36 100 97 100 100 100 100 100 88 43 99 87 70 46 92 33 97 100 99 25 0 0 0 0 0 0 0 1 0 0 0 0 0 0
0 0 0 0 20 100 100 100 100 100 99 100 100 94 92 86 26 90 54 52 78 29 57 41 34 51 52 35 50 28 6 0 0 0 0 0 0 0 0 0 0 0 0
0 0 0 0 0 14 96 100 100 100 100 100 95 100 94 45 58 39 59 5 46 99 100 100 83 15 15 62 67 2 0 0 0 0 0 0 0 0 0 0 0 0 0
0 0 0 0 0 0 0 0 0 0 0 0 1 77 13 2 2 58 18 5 5 39 92 25 100 100 100 100 58 98 31 11 1 0 0 0 4 0 0 2 58 42 25
0 0 3 0 0 0 0 0 0 0 0 0 0 0 5 73 3 0 2 100 100 100 94 39 5 7 43 50 83 98 92 78 92 100 52 80 25 44 89 100 100 96 98
0 0 0 0 0 0 0 0 0 0 0 0 0 0 0 0 0 0 97 100 100 100 96 5 5 5 8 24 34 18 98 5 43 93 100 100 100 100 100 100 100 100 100
0 0 0 0 0 0 0 0 0 0 0 0 0 0 0 0 0 0 81 91 24 80 51 6 16 87 90 98 83 100 100 99 19 70 66 98 100 100 100 100 100 100 100
0 0 0 0 0 0 0 0 0 0 0 0 0 0 0 0 4 73 100 20 0 0 0 8 14 77 100 100 100 97 100 74 90 85 25 45 100 100 100 100 100 100 100
0 0 0 0 0 0 0 2 4 0 0 0 0 0 0 0 0 0 23 25 1 9 2 1 7 37 100 100 100 100 100 100 98 64 22 100 93 100 100 100 100 100 100
0 0 0 0 0 0 3 37 100 100 100 19 0 0 0 0 0 0 0 1 62 64 32 49 73 84 98 100 100 100 100 100 100 100 100 100 100 100 100 100 100 100 100
0 0 0 0 2 5 10 5 98 100 56 100 10 1 1 0 0 14 4 38 35 12 10 3 19 97 91 100 100 100 100 100 100 100 100 100 100 100 100 100 100 100 100
0 0 0 0 1 3 5 17 8 84 100 100 100 100 60 1 4 53 62 89 96 43 39 6 69 100 88 100 100 100 100 100 100 100 100 100 100 100 100 100 100 100 100
5 2 3 3 4 5 5 5 12 98 100 93 79 100 100 100 92 67 39 86 58 23 97 98 99 100 100 100 100 100 100 100 100 100 100 100 100 100 100 100 100 100 100
2 5 5 6 11 5 5 17 27 57 100 100 100 100 100 100 100 100 100 63 35 72 100 100 88 65 83 94 100 100 100 100 100 100 100 100 100 100 100 100 100 100 100
3 5 5 5 73 100 99 81 100 100 100 100 100 100 100 100 100 100 100 100 100 100 99 62 35 47 78 100 100 100 100 100 100 100 100 100 100 100 100 100 100 100 100

GFSGL_prec_cloud_108.txt.gz
Cloud_Cover
100 60 84 100 100 100 100 100 100 81 74 90 100 100 74 93 34 6 5 0 5 1 0 0 0 0 0 0 0 0 0 0 0 4 5 5 5 3 2 0 0 0 0
100 100 99 100 99 100 100 100 100 100 74 91 100 100 100 96 2 0 4 0 0 2 5 0 0 0 0 0 0 0 0 0 0 0 0 0 0 0 0 0 0 0 0
100 100 100 100 100 100 100 100 100 100 100 100 97 51 64 89 95 0 0 0 0 4 2 0 0 0 0 0 0 0 0 0 0 0 0 0 0 0 0 0 0 5 1
100 100 100 100 99 84 100 99 100 100 100 100 100 94 73 19 33 5 4 0 0 1 5 5 0 0 0 0 0 0 0 0 0 0 0 0 0 0 0 4 0 5 5
100 98 100 100 100 100 100 100 100 100 100 100 100 100 100 96 11 5 5 10 0 0 0 2 0 0 20 4 90 54 0 0 0 0 0 0 0 0 0 0 0 1 0
30 100 100 100 100 100 100 100 100 100 100 100 99 100 100 100 100 80 49 5 3 4 3 0 0 4 6 74 5 1 0 0 1 0 0 0 0 0 0 0 0 1 5
16 100 100 100 100 100 100 100 100 100 100 100 100 100 100 100 100 100 100 5 8 5 24 58 2 0 0 1 5 5 5 5 0 0 0 0 0 0 1 0 0 2 0
77 96 99 100 100 100 100 100 100 100 100 100 100 100 100 100 100 100 100 100 95 19 12 77 64 8 0 0 0 0 0 0 0 0 0 0 0 0 4 0 0 4 8
100 100 88 100 100 100 100 100 100 100 100 100 100 100 100 100 100 100 100 100 100 19 48 99 100 63 83 0 0 0 0 0 0 0 0 0 0 0 0 5 4 9 4
33 11 78 64 100 100 100 100 100 100 100 100 100 100 100 100 100 100 100 100 100 100 100 84 100 100 100 100 8 0 0 0 1 5 2 5 7 0 1 5 5 5 5
0 0 0 0 83 100 100 100 100 100 100 100 100 100 97 100 100 100 100 100 100 100 100 100 93 100 100 100 100 78 43 58 15 0 5 5 0 2 3 5 2 2 5
0 0 0 0 0 0 68 100 100 100 100 100 100 100 100 99 97 98 100 100 100 100 100 32 11 100 100 98 92 100 88 100 100 90 6 1 0 0 0 0 0 0 0
0 0 0 0 0 0 0 0 35 100 100 100 100 100 100 97 94 100 100 88 100 78 49 58 53 7 6 6 32 47 100 35 32 15 0 0 0 0 4 0 0 0 0
0 0 0 0 0 0 0 0 0 13 100 100 100 100 100 100 29 42 100 58 86 94 54 94 39 80 89 49 65 0 6 4 4 0 0 0 0 0 0 1 0 3 0
0 0 0 0 0 0 0 0 0 0 22 100 100 100 100 95 72 99 96 100 55 47 100 44 5 20 69 16 5 0 2 21 33 21 33 19 1 0 0 4 2 15 6
0 0 0 0 0 0 0 0 0 0 0 1 0 100 81 97 96 100 85 100 100 100 91 57 4 70 49 33 11 17 5 1 3 27 85 84 76 82 66 48 15 30 40
0 0 0 0 0 0 0 0 0 0 0 0 0 31 95 7 100 66 67 100 100 100 100 28 11 6 9 77 24 27 82 59 75 94 100 50 50 75 96 80 59 77 100
0 0 0 0 0 0 0 0 0 0 0 0 0 0 0 0 98 100 89 87 17 94 97 29 59 22 2 12 30 12 71 93 100 100 100 98 68 84 98 73 77 56 98
0 0 0 0 0 0 0 0 0 0 0 0 0 0 0 0 0 64 100 27 0 0 6 15 12 82 12 57 97 100 53 55 88 100 100 100 100 63 82 93 98 82 54
0 0 0 0 0 0 0 0 0 0 0 0 0 0 0 0 0 0 0 10 40 55 45 66 97 95 40 78 100 100 100 100 100 100 100 100 100 100 100 99 100 100 100
0 0 0 0 0 0 0 0 0 0 0 0 0 0 8 9 0 0 24 28 8 91 100 100 100 100 100 100 100 100 100 100 100 100 100 100 100 100 100 100 100 100 100
0 0 0 0 0 0 0 0 0 0 0 0 1 0 0 0 12 37 18 98 23 66 99 100 100 100 100 100 100 100 100 100 100 100 100 100 100 100 100 100 100 100 100
0 0 0 0 0 0 0 1 2 4 4 5 5 5 5 5 59 73 100 100 100 94 29 92 100 100 100 100 100 100 100 100 100 100 100 100 100 100 100 100 100 100 100
0 0 0 0 0 0 2 5 22 77 59 48 57 9 30 100 100 98 39 100 100 100 100 68 22 93 100 100 100 100 74 65 98 98 98 100 100 100 100 100 100 100 100
0 0 0 0 1 5 5 5 23 99 90 25 100 100 100 100 100 100 100 100 100 100 100 100 89 76 55 100 100 15 4 20 34 23 73 90 100 100 100 100 100 100 100
3 0 0 0 0 0 5 5 5 48 98 100 100 100 100 100 100 100 100 100 100 100 100 100 100 100 99 82 51 26 68 49 48 50 72 93 96 100 100 100 100 100 100

GFSGL_prec_cloud_111.txt.gz
Cloud_Cover
5 5 22 95 100 100 96 100 100 100 100 99 46 68 62 100 79 79 67 1 0 0 5 4 0 0 0 0 0 0 0 0 0 2 5 5 5 0 0 0 0 0 0
98 52 90 100 100 100 100 80 100 100 100 100 98 98 91 80 69 59 92 96 4 0 0 4 5 0 0 0 0 0 0 0 0 0 0 0 0 0 0 5 0 1 0
100 100 100 100 100 100 100 100 100 83 100 100 91 100 99 45 75 68 79 100 99 7 2 0 0 4 0 0 0 0 0 0 0 0 0 0 0 0 0 0 0 0 0
100 100 100 100 100 100 100 100 100 100 100 100 100 100 100 100 100 100 100 100 100 54 5 4 0 2 8 2 0 0 0 0 0 0 0 0 0 0 0 0 0 0 0
100 100 100 99 100 92 100 98 100 100 100 100 100 100 100 73 100 100 100 100 100 100 22 14 34 1 8 46 27 3 11 14 0 0 0 0 0 0 0 0 0 3 4
100 100 100 100 100 100 100 88 100 98 100 100 100 100 100 100 100 100 100 100 100 100 100 100 97 48 5 2 11 5 0 3 0 0 0 0 0 0 0 0 4 0 0
100 100 100 100 98 100 100 100 98 72 97 100 100 100 100 100 100 100 100 100 100 100 100 100 100 100 99 25 0 0 0 0 0 0 0 0 0 0 0 5 0 0 0
100 100 100 98 100 100 100 100 100 86 94 92 100 100 100 100 100 100 100 100 100 99 100 100 100 100 100 100 12 9 0 0 0 0 0 0 0 0 0 4 4 3 4
100 100 100 46 6 99 100 99 100 100 100 100 100 100 100 100 100 100 100 100 100 100 100 100 100 100 100 50 98 100 63 42 0 0 0 0 0 0 0 0 3 24 5
100 100 100 100 27 25 100 100 100 100 100 100 100 100 100 100 100 100 100 100 100 100 100 100 100 100 100 100 74 99 16 5 36 4 0 0 10 3 4 0 3 19 11
100 100 100 87 90 98 61 100 100 100 100 100 100 100 100 100 100 100 100 100 100 100 100 100 100 100 100 100 100 96 100 100 94 86 78 45 1 0 0 19 5 4 8
100 100 100 96 97 74 84 5 100 64 100 100 100 100 100 100 100 100 100 100 100 100 100 98 88 100 83 100 73 23 58 100 100 95 78 10 5 2 0 0 0 2 3
100 100 100 85 100 100 100 82 96 98 98 99 100 100 100 100 100 100 100 100 100 100 100 99 100 100 89 39 5 0 45 29 28 29 37 61 6 1 0 0 0 0 0
100 100 94 100 100 100 92 2 0 51 41 85 100 100 100 100 100 100 100 100 100 100 100 100 92 97 31 8 17 5 1 17 31 58 62 15 6 11 2 0 3 0 0
100 46 25 10 76 54 27 0 0 0 0 0 1 90 100 100 100 100 100 100 100 100 100 100 100 60 10 5 5 82 18 21 24 33 50 55 84 67 44 13 4 0 0
0 0 0 0 0 2 100 97 26 2 0 0 0 0 0 22 80 100 100 100 100 100 100 100 100 100 56 48 25 26 39 39 14 31 26 69 100 100 100 98 91 84 74
0 0 0 0 0 0 0 2 7 22 0 0 0 0 0 0 0 0 81 100 100 97 100 100 100 100 100 98 69 70 49 15 0 9 90 32 46 100 100 99 100 100 100
35 4 0 0 0 0 0 0 0 0 0 0 0 0 0 0 0 33 100 53 4 72 47 71 98 99 53 37 33 100 94 65 44 100 100 99 67 91 100 100 100 71 100
69 5 5 5 0 0 0 0 0 0 0 0 0 0 0 0 0 6 100 1 30 34 39 65 62 81 99 100 78 11 78 97 28 30 69 100 100 100 100 100 100 100 93
0 4 5 4 3 0 0 0 0 0 0 0 0 0 0 0 0 0 0 0 60 92 70 67 99 100 100 100 21 100 95 100 100 100 97 51 24 100 100 100 100 100 100
0 0 0 0 0 0 0 0 0 0 0 0 0 0 0 1 0 0 0 0 0 2 98 100 100 100 100 100 99 65 75 96 100 100 100 100 100 84 65 100 100 100 100
0 0 0 0 0 0 0 0 0 0 0 1 0 0 1 5 5 5 4 2 39 57 100 100 87 22 75 100 38 95 97 100 100 100 100 100 100 100 100 100 100 100 100
4 0 0 0 0 0 0 0 0 0 0 5 8 5 6 5 5 15 9 63 97 86 100 100 100 100 100 90 50 41 81 96 100 100 100 100 100 100 100 100 100 100 100
29 5 4 0 0 0 0 0 0 0 0 5 14 90 100 100 90 87 33 79 100 100 100 100 100 94 92 100 100 95 97 96 95 100 100 100 100 100 100 100 100 100 100
4 3 1 1 0 0 0 0 0 5 5 5 7 45 84 100 100 100 100 100 100 100 100 100 100 100 100 100 100 100 95 46 35 34 100 100 100 100 100 100 100 100 100
2 0 2 0 0 0 0 1 0 5 6 5 36 26 72 100 100 100 100 100 100 100 100 100 100 100 100 100 100 100 100 100 100 100 100 100 100 100 100 100 99 100 100

GFSGL_prec_cloud_114.txt.gz
Cloud_Cover
69 75 5 5 99 100 100 100 100 98 100 7 58 13 7 8 5 14 90 100 60 0 0 0 0 0 0 0 0 0 0 0 0 0 0 0 0 0 5 5 4 2 0
100 97 5 5 8 100 100 100 100 100 100 100 46 28 9 5 5 5 14 87 100 91 5 2 0 0 0 0 0 0 0 0 0 0 0 0 0 0 0 4 0 0 0
59 100 51 41 86 79 87 100 100 100 98 100 100 30 62 39 5 5 91 98 87 100 100 9 5 2 2 0 0 0 0 0 0 0 0 0 0 0 0 0 0 0 2
95 100 100 100 100 99 44 63 100 100 100 100 100 100 34 8 33 52 18 62 99 100 100 100 55 13 16 5 3 2 0 0 0 0 0 0 0 0 0 2 3 0 5
100 98 100 100 100 100 96 89 98 100 100 100 100 100 100 100 66 100 96 35 97 97 100 100 100 84 89 68 4 0 0 0 0 0 0 0 0 0 0 1 0 44 3
100 100 100 100 100 100 100 63 93 100 100 100 100 100 100 100 100 100 100 100 100 100 100 100 100 100 100 99 7 84 1 0 0 0 0 0 0 0 0 4 0 0 0
100 100 100 100 100 100 98 91 99 100 100 76 100 97 100 100 100 100 97 97 100 100 100 100 100 99 100 100 100 38 48 10 4 0 0 0 0 0 0 0 2 0 0
100 100 100 100 100 100 100 100 100 82 100 100 70 72 34 62 100 100 100 100 100 100 100 100 100 100 100 100 100 100 76 65 5 5 0 0 0 0 0 0 0 0 9
100 100 100 100 100 100 92 100 100 100 100 100 100 100 96 60 100 100 100 100 100 99 100 99 100 100 100 100 100 100 100 98 12 5 6 3 0 0 7 6 6 43 0
100 100 100 100 100 100 100 100 100 100 100 99 98 100 100 67 98 100 100 100 100 100 100 100 100 100 100 100 100 100 100 100 90 11 5 5 32 0 21 1 0 1 3
100 100 100 100 100 100 100 100 84 72 99 87 94 100 100 100 100 100 100 100 100 96 80 81 100 98 100 100 100 100 93 76 99 100 82 24 5 5 5 1 0 0 0
100 100 100 100 100 100 100 100 98 100 100 100 100 80 100 100 100 100 100 100 100 100 100 100 99 100 100 92 98 78 100 72 5 25 12 2 3 5 5 5 5 4 1
100 100 100 100 100 100 90 89 100 100 100 100 44 98 98 100 100 100 100 100 100 100 100 99 100 93 98 95 99 58 44 10 37 51 38 15 37 30 9 20 4 5 1
100 100 100 100 100 100 100 100 100 99 83 100 100 100 64 91 100 100 100 100 100 100 98 96 99 75 100 100 70 40 70 11 50 92 98 98 56 57 83 95 88 63 62
100 100 100 100 100 100 100 100 100 100 100 100 100 58 88 87 100 100 100 100 100 100 100 100 91 44 83 100 98 96 53 62 6 5 0 3 0 57 98 90 100 96 100
100 100 100 100 100 100 100 100 100 100 100 100 87 62 98 68 10 100 100 100 100 100 100 100 100 100 100 100 99 99 100 100 100 36 55 60 9 22 17 44 100 100 100
84 100 100 100 100 100 100 100 100 81 59 92 100 100 99 13 28 89 100 100 100 91 100 35 78 96 100 100 100 100 100 100 98 100 76 97 96 99 87 19 8 45 93
3 85 100 100 100 99 100 100 100 100 66 6 4 6 34 17 40 98 92 14 0 23 49 45 29 58 76 80 97 100 100 41 83 99 68 89 100 90 96 60 43 88 100
5 0 93 98 5 55 67 16 5 3 0 0 0 0 0 11 39 7 80 66 22 2 76 99 49 66 96 100 100 100 100 100 82 91 100 100 96 100 100 32 26 78 98
5 5 4 6 6 5 0 4 5 3 0 0 0 0 0 0 0 0 0 1 32 66 91 6 39 82 95 92 94 100 98 100 94 43 38 100 100 100 100 100 99 96 93
3 1 0 0 0 0 0 0 0 0 0 0 0 0 0 3 3 4 4 4 0 0 34 99 100 97 77 50 72 78 99 100 100 84 96 99 100 100 100 100 100 100 100
0 0 0 0 0 0 0 0 0 0 0 0 0 0 5 5 10 60 71 63 56 25 9 21 93 100 100 100 99 98 89 60 46 85 100 100 100 100 100 100 100 100 100
2 2 5 3 1 0 0 0 0 0 0 0 0 0 5 5 5 20 98 100 100 100 95 98 80 100 100 100 100 100 100 100 100 100 100 100 100 100 100 100 100 100 100
5 5 5 2 0 0 0 0 0 0 0 0 0 0 2 5 5 21 53 88 100 100 100 88 100 100 100 100 100 100 100 96 100 100 100 100 100 100 100 100 100 100 100
98 28 5 0 0 0 0 0 0 0 0 0 0 0 0 5 39 75 80 98 100 100 100 100 100 100 100 100 100 100 100 100 100 100 100 100 100 100 100 100 100 100 100
88 18 3 1 0 0 0 0 0 0 0 0 0 0 0 4 27 47 94 100 100 100 100 100 100 100 100 100 100 100 100 100 100 100 100 100 100 100 100 100 100 100 100

GFSGL_prec_cloud_117.txt.gz
Cloud_Cover
73 26 37 4 5 5 22 5 9 17 49 7 3 4 2 2 5 5 8 96 100 99 68 2 0 4 4 0 0 0 0 0 0 0 0 4 4 5 0 1 0 5 6
85 41 43 6 5 5 58 83 100 29 100 66 12 5 25 2 5 6 16 5 41 100 100 100 98 9 4 4 0 0 0 0 0 0 0 3 5 4 0 0 5 5 5
100 93 8 14 34 5 9 49 89 33 100 100 87 22 2 1 33 5 33 5 5 5 37 82 100 100 72 7 6 2 4 0 0 0 0 0 0 0 0 0 0 0 5
100 100 74 31 63 72 62 16 10 80 86 86 65 22 5 2 34 16 5 4 40 13 23 5 29 100 100 99 70 14 2 0 1 0 0 0 0 0 0 4 0 0 4
100 100 100 100 94 76 72 96 42 41 74 76 73 76 41 4 8 28 29 5 51 82 75 52 23 6 16 100 90 100 13 0 0 0 0 10 0 0 0 1 2 0 0
100 100 100 100 100 99 100 100 100 99 70 68 100 100 100 61 100 86 55 0 24 5 5 65 5 5 84 39 100 96 100 5 2 0 0 2 0 0 0 0 0 0 0
100 100 69 100 100 89 90 100 100 100 89 53 90 97 100 90 99 96 100 18 7 7 72 65 32 6 5 100 79 54 70 94 26 10 0 0 0 0 0 0 0 0 0
100 100 100 100 100 100 92 100 98 88 91 100 87 96 98 67 100 100 100 87 94 35 73 20 16 68 19 14 9 36 8 30 100 37 5 1 0 6 7 14 26 12 0
100 100 100 100 100 100 100 100 100 100 84 95 100 100 98 100 100 100 58 92 82 88 100 91 97 94 100 89 18 83 100 94 81 99 25 8 5 6 45 4 41 81 10
100 100 100 100 100 92 100 100 87 99 100 100 100 100 100 93 100 100 86 53 51 44 99 100 100 100 100 100 87 77 71 99 100 78 61 90 96 98 60 9 26 57 76
100 100 100 100 100 100 100 100 100 100 98 100 100 100 100 98 100 100 100 100 100 88 92 100 100 100 99 90 93 37 95 100 100 100 99 14 35 11 41 70 87 76 49
100 100 100 100 100 100 100 100 98 100 100 100 81 98 100 100 98 100 100 100 100 100 98 96 94 94 100 80 49 9 91 98 48 11 10 21 3 45 82 12 70 93 87
100 100 100 100 100 100 100 100 100 100 100 100 98 43 77 100 100 100 100 100 100 94 100 92 81 55 80 99 90 64 56 68 99 88 27 4 0 15 79 77 100 98 67
100 100 100 100 100 100 100 100 100 100 100 100 100 100 100 100 100 100 100 100 100 99 98 98 97 92 100 100 100 98 100 40 46 51 10 41 29 80 6 0 6 12 38
100 100 100 100 100 100 100 100 100 100 100 100 100 100 100 100 100 72 100 91 100 100 98 100 100 77 100 100 82 100 100 100 96 93 52 51 70 26 98 5 5 6 16
100 100 100 100 100 100 100 100 100 100 100 100 100 100 100 100 100 100 100 100 100 100 100 100 100 100 100 100 100 100 91 59 46 73 5 82 100 100 100 100 86 100 96
100 100 100 100 100 100 100 100 100 100 100 100 100 100 100 100 100 100 100 100 100 100 100 99 92 100 100 100 100 100 100 100 100 87 30 40 69 44 98 100 100 100 100
15 79 100 100 100 100 100 97 100 100 100 100 100 100 100 100 100 100 92 100 100 100 100 92 10 5 32 90 98 100 100 100 100 100 100 76 31 38 59 100 23 5 64
30 5 5 2 6 96 100 100 98 99 100 100 100 67 100 100 100 82 100 99 95 100 100 100 100 99 76 15 43 59 64 93 100 100 97 86 74 100 63 56 77 95 41
100 98 94 73 70 37 72 100 100 100 100 100 100 100 100 100 100 100 100 100 100 93 8 33 98 99 100 100 94 100 94 97 97 88 82 88 86 82 98 99 68 58 49
100 100 100 100 100 100 56 63 99 100 100 100 100 100 100 66 100 100 100 99 100 100 100 100 100 36 35 90 100 100 100 100 98 100 100 100 100 100 100 100 100 100 100
100 76 18 61 100 90 66 57 17 6 5 5 0 0 0 0 48 93 100 100 89 48 19 44 62 54 26 25 81 100 100 100 100 100 99 100 100 100 100 100 100 100 100
59 70 71 30 5 5 2 0 0 0 0 0 0 0 1 2 2 5 5 5 3 20 82 100 100 100 100 100 100 100 98 98 100 100 100 100 100 100 100 100 100 100 100
14 34 6 5 5 5 4 0 0 0 0 2 5 5 5 5 5 5 5 5 32 84 100 100 100 100 100 100 100 100 100 100 100 100 100 100 100 100 100 100 100 100 100
100 100 92 6 5 5 5 0 0 0 0 0 0 0 0 2 5 5 5 5 6 52 100 100 100 100 100 100 100 100 100 100 98 100 100 100 100 100 100 100 100 100 100
100 98 100 96 22 5 5 0 0 0 0 0 0 0 0 0 0 0 0 5 42 92 100 100 100 100 100 100 100 100 100 100 100 100 100 100 100 100 100 100 100 100 100

GFSGL_prec_cloud_123.txt.gz
Cloud_Cover
14 84 21 23 48 64 56 38 13 33 70 100 22 56 25 23 44 11 2 56 79 6 5 6 8 3 0 1 54 30 11 26 0 0 0 33 0 0 1 0 3 20 100
27 70 13 5 26 33 60 58 45 48 14 21 49 80 92 32 50 6 0 21 27 99 97 74 67 40 62 5 0 6 0 0 0 0 81 11 100 1 0 0 4 5 5
84 31 19 25 54 13 44 44 69 30 17 10 93 63 90 30 45 40 57 71 13 36 60 99 86 92 34 6 8 12 38 67 84 0 0 17 1 76 0 28 77 1 23
100 98 94 21 1 2 14 31 37 12 94 90 100 97 100 37 99 85 36 32 23 47 58 22 19 97 100 89 53 9 28 2 1 12 7 72 14 100 52 3 8 4 4
51 100 22 7 53 12 3 8 14 48 98 96 89 100 87 76 86 60 97 19 0 3 4 6 35 40 10 23 69 80 10 4 9 48 2 29 27 0 0 3 5 5 5
54 53 65 43 56 98 66 76 6 5 13 80 96 47 100 42 98 95 34 50 100 32 31 32 4 0 3 5 5 28 80 52 5 0 0 0 0 0 0 0 5 5 47
86 100 88 99 98 100 96 100 100 100 98 22 20 64 65 90 89 80 16 5 6 65 6 52 5 97 60 62 37 25 48 52 14 18 25 2 0 5 1 5 3 0 3
100 100 100 100 100 100 100 100 100 100 95 75 36 64 98 100 30 9 22 3 4 16 51 39 27 28 20 2 0 1 3 10 100 76 100 44 12 5 5 3 4 5 23
93 100 100 100 100 100 100 100 90 100 100 100 100 100 81 24 12 4 7 39 28 57 63 9 26 10 40 2 0 58 80 28 4 1 12 15 5 5 38 2 6 13 17
100 100 100 100 100 100 100 98 99 100 100 100 100 100 100 77 92 79 28 47 37 24 55 8 11 5 0 0 0 0 7 58 26 35 40 5 5 0 40 9 6 65 77
100 100 100 100 100 100 100 100 100 100 100 100 99 100 95 100 98 100 100 80 100 46 44 98 5 8 36 47 36 59 28 19 40 0 3 3 17 24 100 98 10 19 23
100 100 100 100 100 100 100 100 100 100 100 100 100 100 100 100 100 100 96 92 90 12 5 72 100 100 76 70 42 20 41 45 76 100 87 20 70 12 12 4 1 0 1
96 64 100 100 100 100 100 100 100 100 100 100 100 100 100 100 100 83 83 84 100 100 70 25 48 81 100 99 100 100 27 84 90 39 81 68 52 6 14 5 5 2 4
100 100 100 77 100 100 100 100 100 100 100 100 100 100 100 100 100 100 100 99 56 40 68 91 99 88 79 75 98 95 100 75 100 100 30 9 42 99 100 88 97 14 5
100 100 100 100 100 100 100 100 100 99 100 100 100 100 100 100 100 100 100 100 86 74 51 42 54 85 100 54 100 70 100 100 100 100 100 100 100 100 62 49 67 70 86
99 100 100 100 100 96 100 100 100 100 100 100 100 100 100 100 100 100 100 100 100 99 90 100 88 43 66 93 12 9 71 100 100 91 100 100 97 35 56 5 2 5 7
100 100 95 82 96 97 100 90 100 100 100 100 100 100 100 100 100 100 100 100 100 100 100 100 100 100 100 100 100 100 100 100 100 100 100 100 100 100 98 48 5 1 3
100 84 99 100 93 16 5 5 86 100 100 100 100 100 100 100 100 100 98 100 100 100 100 100 100 100 100 100 78 100 100 99 100 100 100 100 100 100 100 100 100 66 55
100 100 100 100 94 87 91 68 86 90 45 70 58 73 94 100 100 100 100 100 93 98 100 100 100 100 100 100 100 100 100 100 100 99 98 78 97 100 100 97 100 100 99
100 100 100 100 100 100 100 100 100 100 100 98 90 80 24 27 53 99 100 100 100 100 100 100 100 81 81 100 86 100 100 100 100 100 100 100 100 100 100 100 100 100 96
100 100 100 100 100 100 100 100 100 100 76 5 5 5 5 5 2 0 0 22 95 100 100 100 100 100 100 100 100 77 77 100 100 99 77 85 97 86 100 100 100 100 100
100 100 100 100 98 83 94 100 100 66 65 39 5 78 46 5 1 0 0 0 0 0 2 65 90 100 100 100 100 100 100 100 100 100 100 99 96 100 100 100 100 100 100
100 100 100 100 100 100 100 100 100 99 96 98 79 39 74 7 3 1 0 0 0 0 0 0 3 3 5 17 51 86 100 100 100 100 100 100 100 100 100 93 100 100 100
100 100 100 100 100 100 100 100 100 100 100 100 98 100 76 26 40 7 5 12 37 29 16 40 21 46 12 5 4 6 36 55 83 100 100 100 100 100 100 100 100 100 100
100 100 100 100 100 100 100 100 100 100 100 100 100 100 100 100 100 100 99 100 98 90 100 98 100 100 50 12 31 93 95 53 49 81 100 100 96 89 98 100 100 100 100
6 74 100 100 100 100 100 94 91 87 100 100 100 100 100 100 100 100 100 100 100 69 30 21 9 10 19 44 85 92 29 6 50 72 86 100 100 100 100 100 100 100 100

GFSGL_prec_cloud_129.txt.gz
Cloud_Cover
97 100 23 30 38 50 90 26 100 100 97 69 5 3 36 82 0 0 4 0 0 12 0 2 50 87 90 37 4 2 34 87 88 92 2 79 99 43 62 96 100 66 12
100 100 100 6 5 5 5 24 76 100 100 100 69 18 5 0 3 5 2 0 1 5 0 0 0 7 47 0 0 4 0 0 0 0 10 26 0 1 100 71 98 81 56
100 100 100 100 18 5 2 4 5 65 74 100 100 93 94 11 3 50 3 0 0 4 99 100 18 1 0 0 0 0 0 4 0 0 25 20 100 45 88 5 5 1 5
100 100 100 30 43 5 3 0 0 4 24 94 100 100 96 40 6 5 5 10 5 9 65 100 100 70 12 1 0 0 0 0 0 0 0 0 0 10 5 4 5 6 5
100 100 100 100 100 95 5 4 1 4 6 60 83 100 100 99 100 100 88 44 100 92 19 100 66 21 100 7 2 0 0 0 0 0 0 0 0 0 0 2 3 5 5
100 100 100 100 100 100 52 3 0 2 52 78 48 100 85 100 100 100 100 100 100 100 96 29 27 74 5 15 51 5 0 4 0 0 0 0 0 0 0 2 4 8 30
100 100 100 100 100 100 100 85 8 5 5 12 93 94 88 82 38 100 73 80 100 99 93 100 100 92 72 5 10 24 71 5 7 5 4 3 3 3 0 0 0 1 5
100 100 100 100 100 100 100 100 100 100 100 99 86 49 86 100 60 99 100 99 85 39 26 100 100 50 83 68 5 4 2 0 2 0 2 4 3 5 0 0 1 1 0
100 100 100 100 100 100 88 97 100 100 100 100 100 100 96 39 100 100 95 93 23 44 100 39 5 4 31 5 67 39 73 85 10 5 0 5 4 5 5 4 3 33 31
98 93 100 100 100 100 57 100 100 100 100 100 100 100 100 79 100 100 100 97 14 75 100 58 9 5 5 5 5 5 3 3 72 27 0 0 3 30 6 5 5 4 10
99 40 26 35 100 100 96 99 100 100 100 100 100 100 100 100 86 50 31 55 100 100 66 2 14 31 5 64 58 31 53 92 7 15 22 16 26 2 1 0 3 0 1
46 17 5 8 21 88 100 100 94 100 100 100 100 100 100 100 100 98 86 49 71 85 100 54 8 16 100 99 100 100 100 100 100 37 5 82 100 64 5 83 50 7 0
87 35 64 34 93 100 100 100 100 100 100 100 100 100 100 100 100 100 100 100 90 83 86 100 96 73 95 97 94 100 100 100 100 100 100 4 5 37 53 59 12 61 5
100 71 44 73 89 94 100 94 100 95 100 100 100 100 98 100 100 100 100 100 100 100 100 64 94 84 82 6 54 93 100 100 97 100 91 100 62 41 48 5 29 100 5
100 95 100 97 57 100 87 16 34 22 69 67 88 100 100 100 100 100 100 98 100 100 100 100 97 76 75 32 63 100 100 100 100 100 81 21 10 26 74 4 5 5 18
100 100 81 95 100 83 100 100 29 60 45 38 47 82 100 100 100 100 100 100 100 100 100 100 99 96 92 88 87 78 100 100 97 35 78 100 76 31 51 69 76 39 57
99 69 100 98 100 100 100 100 98 100 96 50 98 32 5 100 100 100 100 100 100 100 87 100 100 95 74 100 100 99 96 99 80 9 6 56 50 41 7 15 15 5 10
99 58 85 100 100 69 100 100 100 100 100 100 96 73 69 100 20 94 100 100 93 100 100 100 100 100 97 100 98 100 100 100 66 76 93 38 81 48 40 62 16 44 75
55 100 54 16 100 100 100 100 100 100 99 100 100 100 96 82 97 88 90 100 100 100 100 100 100 100 100 97 100 100 100 100 100 99 100 98 95 100 81 82 68 89 71
100 85 99 66 97 96 90 99 100 98 100 99 96 70 94 82 95 92 67 79 100 100 100 100 100 100 100 100 100 100 84 72 66 90 100 82 95 100 100 100 96 96 93
100 100 100 100 67 100 100 100 100 100 100 100 100 100 100 100 95 100 88 96 100 99 100 100 100 100 100 100 98 85 100 100 100 43 0 2 17 96 95 28 11 5 24
3 77 99 100 100 100 100 100 100 100 100 100 100 100 100 100 100 100 100 100 100 100 100 96 100 100 89 42 34 5 5 41 87 84 35 5 5 5 45 14 14 52 94
34 5 5 92 100 100 100 100 100 100 100 100 100 100 100 100 100 100 98 92 100 100 100 86 78 97 100 96 59 34 12 5 1 0 4 5 5 10 10 66 100 100 100
86 98 70 44 90 100 100 100 100 100 100 100 100 100 100 100 100 100 100 100 100 100 100 100 94 65 47 38 9 5 5 5 4 2 0 0 5 27 82 100 100 100 100
100 100 100 93 100 94 100 100 100 100 100 100 100 100 100 100 100 100 100 100 100 100 100 100 100 100 100 96 48 52 7 9 8 39 0 0 5 5 52 100 100 100 100
97 98 100 100 100 100 100 100 100 100 100 100 100 100 100 100 100 100 100 100 100 100 100 100 100 100 100 100 66 17 52 58 24 75 71 16 20 12 91 100 100 100 100

GFSGL_prec_cloud_132.txt.gz
Cloud_Cover
100 100 100 100 93 22 74 97 96 86 98 78 8 5 0 5 5 4 5 5 5 4 86 100 100 100 100 99 85 24 33 100 100 100 90 17 51 72 92 1 7 96 5
100 92 100 100 100 91 7 12 98 77 96 100 45 20 5 95 92 6 5 26 76 50 80 98 54 5 0 0 0 0 0 0 0 0 15 79 5 33 91 83 31 5 4
100 99 96 100 100 100 11 5 70 24 73 100 100 61 70 97 41 60 20 5 5 5 26 97 21 5 11 0 0 0 0 0 0 0 4 19 82 61 68 63 52 2 5
100 100 100 100 100 100 100 12 5 43 24 99 100 100 100 98 100 85 41 4 5 9 3 97 98 8 5 2 0 0 0 0 0 0 0 0 1 48 15 4 10 69 61
100 100 100 100 100 100 100 100 75 22 74 100 100 100 100 100 97 45 43 52 19 5 7 5 79 19 18 11 0 0 0 0 0 0 0 0 0 0 0 16 41 4 35
100 100 100 100 100 100 100 100 100 99 32 94 86 20 11 100 99 100 100 6 60 72 43 82 12 5 5 23 1 0 0 2 0 0 4 0 0 0 2 16 8 15 23
100 100 100 100 100 100 100 100 100 100 100 100 32 50 74 100 100 100 100 100 100 60 50 69 89 66 37 46 29 12 5 6 21 13 1 0 20 1 6 0 0 7 0
100 100 100 100 100 100 100 100 100 100 100 100 100 100 100 100 100 100 100 100 100 100 92 68 97 98 20 5 84 13 8 5 11 5 5 5 5 0 2 4 3 0 14
100 100 100 100 100 100 100 100 100 100 100 100 100 100 100 100 100 100 100 100 99 99 100 98 99 90 78 99 56 5 74 87 20 5 5 6 5 4 0 14 2 4 5
100 100 100 100 100 100 100 100 100 100 100 100 100 100 100 100 100 100 100 100 100 100 97 95 100 100 99 77 76 48 8 5 5 5 6 23 9 0 0 0 0 0 1
100 100 81 100 100 100 100 100 100 100 100 100 100 100 100 100 100 100 99 100 100 100 100 100 80 46 79 61 100 100 92 27 9 5 16 82 75 5 2 5 0 0 0
100 99 100 100 100 100 100 100 100 100 100 100 100 100 100 100 100 100 100 100 100 100 100 100 100 97 100 100 97 89 67 100 100 100 97 66 28 100 83 73 5 14 1
97 100 100 100 100 100 100 100 100 100 100 100 100 100 100 99 100 100 100 100 100 100 100 100 76 89 100 100 100 95 64 10 8 47 100 100 76 78 11 67 7 5 60
98 100 100 100 100 100 96 98 100 100 100 88 81 99 98 100 100 100 100 100 100 100 100 99 95 100 100 100 99 58 51 77 31 5 5 37 89 100 98 50 44 5 5
91 100 73 100 100 24 89 96 84 96 100 87 88 29 41 84 100 100 100 100 100 100 100 100 100 100 100 100 100 97 88 50 8 5 5 5 5 5 86 99 88 87 100
100 100 100 100 100 100 100 100 33 25 43 28 51 13 46 13 85 100 93 100 100 100 100 100 100 100 98 97 97 100 96 94 99 96 68 38 6 30 5 34 25 5 11
100 94 100 100 100 100 100 69 100 99 75 93 90 99 100 100 100 12 6 5 64 89 100 100 100 100 100 100 100 100 100 92 68 55 96 98 94 8 7 10 21 5 4
100 100 100 12 82 81 100 98 100 100 100 100 70 80 38 96 100 50 87 97 99 100 91 98 100 100 100 100 100 100 100 100 100 95 94 100 100 100 100 88 91 98 46
100 100 100 100 86 100 100 100 100 100 100 100 100 100 100 100 100 100 100 100 98 94 63 37 54 84 100 93 100 100 100 100 100 100 100 100 100 100 99 58 86 73 99
3 99 100 100 98 86 77 76 100 48 99 100 100 100 100 100 100 100 100 100 100 88 96 79 97 95 63 67 94 100 100 100 100 60 100 100 100 100 100 100 100 100 91
0 29 100 100 99 66 5 6 6 10 77 100 100 100 100 100 100 100 100 100 100 100 100 100 100 92 100 66 49 44 35 96 100 100 100 100 100 100 100 100 100 78 89
8 2 81 100 100 55 5 5 90 100 97 99 100 100 100 100 100 100 100 100 100 100 100 100 100 100 100 100 100 100 100 90 69 60 92 100 100 100 100 100 100 100 100
100 53 5 5 5 5 23 23 5 35 99 100 96 99 100 100 100 100 100 100 100 100 100 100 100 100 100 100 100 99 100 100 50 25 48 28 16 18 57 82 98 100 100
100 100 97 87 34 5 5 6 16 5 5 56 100 100 100 100 100 100 100 100 100 100 100 100 100 100 100 100 100 100 100 100 100 100 94 90 21 6 6 5 37 5 72
100 99 90 100 50 79 98 64 11 14 53 9 5 51 100 100 100 100 100 100 100 100 100 100 100 100 100 100 93 100 100 100 100 96 99 100 89 29 5 5 5 5 28
50 95 100 100 100 72 7 25 57 65 98 86 94 8 5 8 92 100 100 100 100 100 100 100 100 100 100 100 100 100 100 100 100 100 100 100 97 68 33 24 42 6 22

GFSGL_prec_cloud_135.txt.gz
Cloud_Cover
98 100 100 100 100 91 81 38 100 100 94 63 32 44 63 18 11 30 4 3 2 0 0 0 9 28 36 0 0 0 58 100 86 34 66 7 35 8 39 89 72 5 5
67 99 71 62 100 100 100 98 89 100 100 100 100 99 100 100 92 20 35 52 23 5 0 0 0 0 0 4 5 0 0 0 0 0 70 63 48 6 10 43 68 62 5
100 100 100 91 100 100 100 98 100 94 90 100 100 100 100 100 99 100 63 42 74 6 7 5 78 3 4 0 0 2 1 0 0 0 2 2 16 31 61 85 21 78 89
95 100 100 100 100 100 100 100 100 100 36 100 100 100 100 100 100 98 100 100 100 74 64 50 99 63 15 5 4 0 0 0 0 0 0 0 0 1 1 14 6 71 52
100 99 100 100 100 100 100 100 100 96 90 100 77 100 100 100 100 100 100 100 100 100 100 100 91 93 75 6 5 6 2 3 17 4 0 0 4 2 6 19 12 2 5
100 100 100 100 100 100 100 100 100 100 100 100 100 100 100 100 100 100 100 100 100 100 100 100 100 100 97 92 6 5 5 5 5 5 7 0 0 6 33 17 10 10 9
100 100 100 100 100 100 100 100 100 97 96 99 99 100 100 100 100 100 100 100 100 100 99 100 100 100 85 65 95 65 65 42 61 22 6 51 15 3 0 0 3 22 30
100 100 100 100 100 100 100 100 100 100 100 100 100 100 100 100 100 100 100 100 100 100 100 100 100 100 100 97 99 82 51 96 71 92 80 53 77 72 5 1 1 18 33
100 100 100 100 100 100 100 100 100 100 100 100 100 100 100 100 100 100 100 100 100 100 100 100 100 100 100 100 98 96 100 100 78 6 19 64 61 87 85 69 5 5 32
100 100 100 100 100 100 100 100 100 100 100 100 100 100 100 100 100 100 100 100 100 100 100 100 80 100 100 100 100 100 100 100 96 100 92 12 6 5 5 5 0 0 4
100 100 100 100 100 100 100 100 100 100 100 100 100 100 100 100 100 100 100 100 100 100 100 90 98 100 100 97 100 100 100 100 100 87 100 100 100 100 98 94 41 3 0
100 100 100 100 100 100 100 100 100 100 100 100 100 100 100 100 100 100 100 100 100 100 100 100 100 100 100 85 53 100 100 93 98 64 100 72 65 90 100 100 100 100 100
94 57 100 100 100 100 100 100 100 100 100 100 100 100 100 100 100 100 100 100 100 100 100 100 100 100 100 99 95 54 94 100 100 100 99 85 99 72 28 7 62 100 100
100 100 100 100 100 100 100 100 100 100 100 100 100 100 100 100 100 100 100 100 100 100 100 100 100 100 100 100 100 100 85 58 68 98 88 60 82 95 31 5 5 5 5
100 100 100 100 100 100 100 100 100 100 100 100 100 100 100 100 100 100 100 100 100 100 100 100 100 100 100 100 100 100 100 100 99 99 58 5 53 79 63 54 18 5 5
100 100 100 100 100 100 100 100 100 100 100 100 100 100 100 100 100 100 100 100 100 77 100 100 100 100 100 100 100 100 100 100 100 92 95 79 92 99 92 78 86 60 15
100 100 100 100 100 100 100 100 100 90 100 100 100 100 100 100 100 100 100 100 98 61 72 100 100 100 100 99 100 100 100 100 100 100 96 100 100 100 82 72 100 99 100
50 98 100 100 94 100 100 100 100 99 96 88 100 100 100 100 100 100 100 100 98 100 92 96 97 75 42 100 90 44 83 99 95 94 100 100 100 97 89 90 100 100 100
0 0 2 15 6 5 26 79 100 100 100 87 100 97 94 100 100 100 92 88 100 100 87 99 99 96 99 100 100 98 100 98 99 100 100 100 100 100 100 100 92 100 94
0 0 1 5 3 5 5 5 5 19 100 100 100 100 100 98 100 100 100 100 100 100 94 99 99 98 100 100 82 92 100 100 100 100 100 100 96 100 100 99 94 81 100
0 0 5 5 5 5 5 5 5 8 42 28 90 99 50 58 100 100 100 95 100 100 100 100 100 100 100 100 100 100 100 100 100 100 100 98 97 96 60 82 93 49 99
0 0 0 0 1 0 0 0 3 4 4 0 3 5 5 22 77 100 100 100 100 100 100 100 100 100 100 100 100 98 94 100 100 99 100 100 95 73 78 75 65 7 13
2 0 0 3 4 5 5 3 0 0 0 0 0 0 0 3 69 48 100 100 100 100 100 100 100 100 100 100 100 100 99 97 100 100 100 100 100 97 94 88 82 72 23
6 5 5 5 5 6 5 5 5 5 5 5 5 5 5 3 0 4 5 15 100 100 100 100 100 100 100 100 100 100 100 100 100 100 99 98 98 100 86 79 65 93 89
4 88 100 69 34 88 96 47 54 99 29 14 7 5 5 5 5 5 16 20 15 10 38 98 99 100 100 100 100 100 100 100 100 100 100 100 100 100 100 90 100 93 73
6 87 82 100 100 100 100 100 100 79 61 39 18 51 30 25 55 46 9 13 88 94 100 100 100 100 100 92 100 100 100 100 100 100 100 100 100 100 100 100 100 100 100

GFSGL_prec_cloud_138.txt.gz
Cloud_Cover
99 100 100 100 100 100 91 85 56 82 57 5 26 73 6 4 5 4 4 4 2 0 0 0 0 0 0 0 33 71 100 85 12 4 1 0 2 5 14 5 5 5 5
100 88 98 100 100 100 100 100 100 100 98 42 47 80 93 98 6 5 4 5 5 8 5 5 1 0 0 0 2 0 1 0 0 5 0 16 5 2 28 91 5 5 7
99 100 100 100 100 100 100 100 100 100 100 100 100 87 100 100 100 94 35 98 83 100 5 5 5 8 0 1 0 5 7 5 2 5 5 2 0 2 4 4 7 19 37
96 94 62 83 100 100 100 100 100 100 100 100 100 100 100 100 100 100 100 88 100 100 100 61 46 52 52 5 3 0 0 5 5 5 48 24 4 5 18 10 4 5 5
100 89 90 74 100 100 100 99 88 100 100 100 100 100 100 100 100 100 100 100 100 100 100 100 100 97 97 38 97 60 13 4 5 5 5 17 44 2 36 36 5 10 5
94 100 100 100 97 62 78 100 100 100 100 100 100 100 100 100 100 100 100 100 100 100 100 100 100 100 100 100 98 100 100 64 41 6 9 5 5 36 8 67 10 2 7
100 100 100 100 100 100 78 100 75 99 100 100 97 94 100 100 100 100 100 100 100 100 100 100 100 100 100 100 100 100 100 100 98 90 84 21 66 57 5 5 22 32 5
100 100 100 99 100 100 100 100 100 99 100 100 100 100 100 98 100 97 100 100 100 100 100 100 100 100 100 100 100 100 100 100 100 100 90 52 34 3 10 1 36 47 74
100 100 100 100 100 100 100 100 100 100 100 100 100 95 73 100 100 100 100 100 100 100 100 100 100 100 100 100 100 100 100 100 100 100 100 100 36 7 10 5 8 11 20
100 100 100 100 100 100 100 100 100 100 100 100 100 100 100 100 100 100 100 100 100 100 100 100 100 100 100 100 100 100 100 100 100 100 100 100 98 36 78 81 84 98 36
100 100 100 100 100 100 100 100 100 100 100 97 100 100 100 100 100 100 100 100 100 100 100 97 91 100 100 100 100 95 88 89 100 93 100 100 100 100 73 100 56 56 91
100 100 100 100 100 100 100 100 100 100 100 100 100 100 100 100 100 100 100 100 100 100 100 100 100 100 100 96 100 85 75 75 84 96 81 63 56 82 61 78 96 37 46
100 100 100 100 100 100 100 100 100 100 100 100 100 100 100 100 100 100 100 100 100 100 100 100 100 100 100 100 100 100 90 71 100 100 64 92 97 10 5 88 84 85 89
100 100 100 100 100 100 100 100 100 100 100 100 100 100 100 100 100 100 100 100 100 100 100 100 100 100 100 100 100 100 100 100 100 88 96 78 100 83 76 88 82 95 98
100 100 100 100 100 100 100 100 100 100 100 100 100 100 100 100 100 100 100 100 100 100 100 100 100 100 100 100 100 100 100 100 100 100 100 100 100 100 89 72 5 5 5
100 100 100 100 100 100 100 100 100 100 100 100 100 100 100 100 100 100 100 100 100 100 100 100 100 100 100 100 100 100 100 100 100 100 100 100 100 100 96 86 76 43 30
100 100 100 100 100 100 100 100 100 100 100 100 100 100 100 100 100 100 100 100 100 100 100 100 100 100 100 100 100 100 100 100 100 100 100 100 100 100 99 94 98 37 6
100 100 100 100 100 100 100 100 100 100 100 100 100 100 98 100 100 100 100 100 100 100 100 100 100 100 100 100 97 100 100 100 100 100 100 100 100 100 100 100 91 99 98
100 100 100 100 100 100 100 100 100 100 100 100 100 100 100 98 100 100 100 100 100 100 100 100 100 97 100 95 84 100 100 100 100 100 100 100 100 100 99 100 100 100 98
76 100 92 65 100 100 100 100 100 100 100 100 100 100 100 100 100 100 100 100 99 99 100 100 100 100 100 100 99 93 100 100 100 100 100 100 100 100 100 91 78 89 92
0 0 1 56 99 100 100 100 100 100 100 100 100 100 100 100 100 100 100 100 100 100 100 100 95 98 100 100 100 100 100 100 100 100 100 100 100 100 100 100 100 100 100
2 0 0 0 0 0 73 100 100 100 100 100 100 100 100 100 75 5 23 54 72 61 88 100 99 100 100 100 100 100 100 100 100 100 100 100 100 100 100 100 100 100 100
5 5 2 0 0 3 4 3 43 94 89 100 84 50 2 0 0 1 2 3 2 0 1 0 16 83 98 100 100 100 100 100 100 100 100 100 100 100 100 100 100 100 100
5 5 5 5 5 5 5 5 5 5 9 41 5 5 5 5 5 5 5 5 5 5 5 5 5 5 5 7 89 100 100 100 100 100 100 100 100 100 100 100 100 99 99
0 0 5 8 40 28 74 95 81 89 55 78 49 44 74 37 14 29 76 77 81 84 51 69 74 83 58 13 19 8 7 85 96 100 100 100 100 100 100 100 100 100 100
2 2 14 53 70 100 100 99 100 100 100 99 100 94 93 98 98 97 94 95 100 100 100 88 79 73 81 87 48 49 84 82 51 51 16 26 55 75 100 100 100 100 100

GFSGL_prec_cloud_141.txt.gz
Cloud_Cover
17 72 80 63 97 20 4 35 8 1 0 1 3 5 0 0 2 2 5 5 0 1 1 0 2 4 2 12 69 92 86 48 0 5 4 4 5 5 5 14 27 32 49
100 100 78 100 100 98 63 60 100 100 96 5 20 13 5 8 4 4 5 5 17 5 5 5 5 5 2 4 5 86 8 5 1 0 5 8 25 6 67 15 5 5 10
36 97 90 76 95 100 100 100 98 100 100 100 100 74 16 56 54 5 18 72 67 8 62 18 7 5 78 31 5 18 10 5 5 6 5 5 5 5 9 61 12 8 50
55 30 75 72 34 97 79 100 100 100 100 95 100 100 100 100 96 100 97 96 66 58 90 32 87 100 38 61 5 16 3 2 3 5 5 43 49 47 64 5 6 12 54
87 67 67 100 18 6 37 98 74 100 78 100 100 98 100 100 100 100 100 100 100 91 99 84 100 40 56 33 16 43 46 5 5 5 5 9 30 10 58 98 50 21 5
100 100 100 100 100 100 100 100 100 100 100 100 100 100 100 100 100 100 100 100 100 100 100 94 41 96 5 37 85 58 52 33 6 7 5 5 2 5 2 2 46 73 48
94 100 100 100 100 100 54 77 92 64 68 100 98 100 100 100 100 100 100 100 100 89 100 100 100 65 40 33 42 97 99 87 23 19 5 9 6 16 5 4 52 6 0
74 100 100 97 100 100 100 100 96 88 96 100 97 86 100 100 100 100 100 98 99 100 100 100 79 100 100 100 98 100 78 81 98 100 82 25 42 75 56 50 72 55 4
100 100 100 100 64 100 100 100 100 100 100 100 98 99 100 100 95 95 100 100 100 100 100 100 100 100 100 100 100 100 100 100 100 88 11 91 100 100 100 100 100 100 76
100 100 100 100 100 100 100 100 100 100 100 100 100 100 100 100 99 98 100 100 92 94 100 100 100 100 100 100 100 100 100 100 98 100 93 54 81 57 24 84 100 100 100
100 100 100 100 100 100 100 100 100 100 100 100 100 100 100 98 100 94 100 100 99 95 90 98 100 100 100 100 100 100 98 100 86 71 88 83 88 85 78 100 97 100 90
100 100 99 100 100 100 100 100 100 100 99 100 100 100 100 100 100 100 96 100 100 100 100 100 100 100 100 100 100 100 100 100 100 99 88 75 98 58 38 55 56 100 100
100 100 100 100 100 100 100 100 97 100 100 100 100 100 100 100 100 100 96 99 100 100 100 100 100 100 100 100 100 100 100 100 100 100 100 100 99 76 88 99 95 100 100
100 100 100 100 100 100 100 100 100 100 100 87 100 100 100 100 95 100 100 100 100 100 100 100 100 100 100 100 100 100 100 100 100 100 100 96 94 72 99 80 73 94 82
100 100 100 100 100 100 100 100 100 100 100 100 91 99 100 100 100 100 100 100 100 100 100 100 100 100 100 100 100 100 100 100 100 100 100 100 100 100 99 16 38 61 90
100 100 100 100 100 100 100 100 100 100 100 100 100 100 98 91 100 100 100 100 100 100 100 100 100 100 100 100 100 100 100 100 100 100 100 100 100 100 100 100 96 100 78
98 100 100 100 100 100 100 100 100 100 100 100 100 100 100 100 100 100 100 100 100 87 100 100 100 100 100 100 100 100 100 100 100 100 100 100 100 100 100 100 100 100 100
100 83 100 76 100 100 100 100 100 100 100 100 100 100 100 100 96 100 100 100 100 100 100 99 95 100 100 100 100 100 100 100 100 100 100 100 100 100 100 100 100 100 100
100 100 100 100 90 54 100 100 100 100 100 100 100 100 100 100 100 100 99 99 100 100 100 100 100 100 100 100 100 100 100 100 100 99 100 100 100 100 100 100 99 100 100
36 100 100 100 100 100 100 100 100 100 100 100 100 99 100 100 100 100 100 98 100 95 100 82 100 100 100 100 100 100 100 100 100 94 93 100 100 66 74 98 100 100 85
0 1 25 99 100 98 100 100 100 100 100 100 100 100 100 100 100 100 100 100 100 100 100 100 100 100 100 100 100 100 100 100 100 100 99 99 100 100 100 100 100 100 100
1 0 1 1 18 75 5 1 7 84 100 100 100 100 100 100 100 100 100 100 100 65 98 100 100 100 100 100 100 100 100 100 100 100 100 100 100 100 100 100 100 100 100
5 5 5 5 5 5 5 3 0 0 1 0 2 8 6 2 2 12 100 100 100 100 93 13 100 100 100 92 100 100 100 100 100 100 100 100 100 100 100 100 100 100 100
0 0 0 5 13 5 5 5 5 5 5 5 5 5 5 5 5 5 23 77 31 14 25 77 19 79 100 100 90 73 78 99 100 34 6 47 60 100 100 100 100 100 100
11 7 0 0 6 52 93 82 84 34 8 56 73 77 67 73 99 78 79 60 67 68 30 6 29 34 5 5 5 5 5 5 5 5 5 5 5 5 5 2 53 99 100
43 52 20 10 49 94 100 100 24 5 97 64 100 100 100 100 100 96 77 82 78 71 39 78 29 5 21 5 17 49 48 31 32 95 83 54 21 44 22 5 5 5 5

GFSGL_prec_cloud_144.txt.gz
Cloud_Cover
5 88 82 24 9 0 1 0 4 0 2 7 2 0 0 0 5 5 4 4 13 6 4 5 5 4 3 3 5 4 31 6 0 95 38 6 54 19 21 63 100 100 100
5 43 89 5 5 2 5 59 3 5 5 16 32 46 5 2 2 5 5 16 26 41 8 18 5 3 19 8 22 6 4 0 3 21 3 2 5 6 5 5 11 36 48
63 100 100 100 34 56 5 100 100 99 100 99 33 2 3 24 5 4 5 18 46 29 32 23 18 22 20 12 5 9 88 19 18 11 18 15 1 30 63 25 18 10 56
5 18 92 100 99 100 100 42 100 100 98 100 100 82 66 100 91 99 100 22 26 39 50 68 43 68 14 22 2 13 8 4 24 7 36 42 22 10 5 6 48 25 64
86 62 5 5 58 65 7 29 93 100 92 100 100 96 99 99 93 25 39 100 42 26 12 33 76 33 24 98 22 60 1 6 2 44 25 29 71 99 5 8 22 5 17
100 90 28 71 100 96 100 82 22 32 56 90 100 100 100 100 100 92 87 83 98 100 57 85 6 48 100 30 100 57 44 97 7 5 11 95 0 0 85 4 12 2 13
100 97 84 80 100 100 100 100 100 98 52 62 57 78 99 100 100 100 96 95 94 90 100 100 100 57 15 10 56 68 28 83 13 32 13 25 37 6 5 9 8 10 38
98 100 87 99 100 100 100 100 100 100 100 100 76 72 75 100 99 100 100 100 30 45 100 100 100 100 95 43 36 94 78 78 95 93 88 8 5 6 22 64 60 76 47
100 100 100 98 81 85 96 94 100 100 100 100 99 85 76 98 89 99 100 100 100 96 100 100 100 100 100 100 100 100 100 100 100 100 98 60 69 6 6 42 47 60 74
100 100 100 100 100 100 100 99 100 100 100 100 100 92 100 100 100 72 99 97 91 95 100 68 85 99 90 100 99 100 100 100 100 100 100 94 72 95 74 60 9 96 66
100 100 100 100 100 100 99 100 100 100 100 100 100 100 100 100 100 100 100 96 96 83 92 100 100 100 100 79 98 100 100 100 100 100 100 85 36 69 46 15 6 5 5
100 100 100 100 100 100 100 100 100 100 100 100 100 100 99 100 89 91 99 100 91 88 100 100 100 100 100 99 97 100 100 99 100 100 100 100 100 98 78 52 47 9 5
100 100 100 100 100 100 100 100 100 100 100 100 100 100 98 97 100 99 32 100 100 100 100 100 100 100 100 100 100 100 68 99 100 100 79 100 100 100 100 100 99 63 5
100 100 100 100 100 100 97 99 100 100 100 100 100 100 100 99 100 98 100 100 100 99 100 100 100 100 100 100 100 100 100 100 100 100 100 100 100 100 100 100 97 31 52
100 100 100 100 100 100 99 94 82 98 100 100 100 99 74 72 99 100 100 100 100 100 100 100 97 88 100 100 100 100 100 100 100 100 100 100 100 100 100 100 100 100 100
100 100 100 100 100 100 100 100 98 84 100 100 100 100 100 100 84 95 100 100 98 100 98 100 99 100 92 100 100 100 100 100 100 100 100 100 100 100 100 100 100 100 100
100 100 100 100 100 99 94 100 100 100 100 100 100 100 100 100 100 100 100 84 100 100 100 100 100 95 99 99 100 100 100 100 100 100 100 100 100 100 100 100 100 100 100
73 100 100 94 5 99 73 11 91 100 100 100 100 100 100 100 100 100 100 100 100 100 100 100 85 100 96 99 64 36 61 99 100 100 100 100 100 100 100 100 100 100 100
0 0 0 19 100 100 98 87 100 40 95 99 100 100 100 100 100 100 100 100 100 100 100 100 100 100 97 100 100 97 92 92 98 100 100 100 100 100 100 100 100 100 100
0 0 0 0 2 100 100 100 100 100 100 79 9 98 99 100 100 96 100 100 100 100 100 100 100 100 100 100 100 100 100 100 100 100 98 95 98 63 100 100 100 100 100
5 5 0 0 0 0 0 64 100 57 84 98 100 100 6 5 77 100 100 100 100 100 100 100 100 100 100 100 100 100 100 100 100 100 100 100 100 100 100 100 100 100 100
20 30 6 5 0 0 0 0 0 0 43 92 89 100 100 100 65 22 19 1 50 99 100 100 100 100 100 100 100 100 100 100 100 100 100 100 100 100 100 100 100 100 100
25 31 62 33 3 1 0 0 0 0 2 2 0 0 9 87 84 100 86 100 100 95 86 100 100 100 91 96 100 100 100 100 100 100 100 100 99 100 65 63 78 100 100
27 8 61 100 67 5 0 5 4 2 5 5 5 5 5 11 5 5 9 71 100 100 100 100 73 90 34 26 24 15 34 15 15 21 66 19 5 11 5 5 5 3 5
4 97 100 100 98 25 1 0 7 6 8 10 20 28 63 75 83 97 100 68 70 60 5 5 5 13 5 5 5 5 5 5 5 5 5 5 5 5 5 5 5 6 8
36 24 4 24 98 100 92 4 15 46 97 58 13 9 61 99 99 81 84 100 99 81 98 87 37 25 35 5 5 5 5 5 5 5 5 5 5 8 16 57 77 65 98

GFSGL_prec_cloud_150.txt.gz
Cloud_Cover
0 0 0 0 0 0 0 9 0 1 0 22 0 4 49 76 80 0 1 16 48 11 0 0 0 0 0 0 0 9 8 87 54 100 100 100 82 100 100 100 100 100 19
22 99 77 75 21 0 4 4 0 1 0 0 0 0 0 3 1 53 53 5 0 46 56 46 30 19 1 0 0 0 0 6 78 92 100 100 100 100 100 100 100 100 69
13 21 91 13 53 3 34 98 19 53 9 3 5 40 5 4 5 1 1 0 0 0 5 65 94 34 72 8 0 0 0 0 62 0 2 52 79 100 100 100 100 99 8
100 93 87 68 83 90 7 19 99 100 100 100 53 65 40 75 41 52 62 4 16 10 15 6 32 95 13 1 2 2 8 0 0 0 4 59 38 89 88 63 76 100 15
100 100 100 100 100 77 76 99 32 100 100 100 100 100 100 100 100 100 100 100 98 95 46 7 29 21 9 0 0 0 4 2 0 0 0 63 47 0 62 67 5 61 78
100 100 100 100 100 100 89 100 100 94 100 90 100 100 100 100 100 100 100 100 100 100 100 100 100 55 5 4 0 28 25 0 0 0 4 5 0 3 100 60 7 17 49
58 51 100 100 100 100 100 100 100 100 100 100 100 100 100 100 100 100 65 68 77 71 87 98 100 66 96 94 98 41 17 7 4 4 5 54 69 96 100 100 100 97 47
97 100 100 100 100 100 100 100 100 100 99 69 89 87 100 100 100 100 97 62 57 5 13 35 50 65 76 12 70 84 100 84 42 9 34 46 48 28 55 88 95 100 10
96 100 100 100 100 100 100 100 100 100 100 100 96 100 100 100 100 100 100 100 99 99 100 65 74 98 100 93 13 11 99 83 6 5 5 5 5 43 43 76 46 97 45
100 100 100 100 100 100 100 100 100 100 100 100 100 100 100 100 100 100 100 100 100 100 100 100 68 99 99 100 93 100 100 88 11 81 27 11 26 51 87 100 100 90 100
100 85 78 100 100 100 100 100 100 96 94 100 100 99 96 90 100 100 88 100 100 100 100 100 100 100 81 100 100 100 100 100 100 100 100 100 100 100 100 100 100 100 100
100 100 93 98 100 100 100 100 100 91 92 98 100 100 100 100 100 100 100 100 100 100 100 98 100 100 95 100 100 100 100 100 100 91 83 42 100 100 100 100 100 100 100
100 100 100 100 100 100 100 100 100 92 96 100 98 99 99 68 100 100 100 100 100 100 100 100 99 93 100 100 98 100 100 100 99 100 98 100 100 100 96 100 100 100 100
100 100 100 100 100 100 100 100 84 100 100 100 99 100 100 91 85 58 66 94 98 96 100 98 96 100 100 85 92 79 100 100 100 100 100 100 100 100 100 100 100 100 100
100 100 100 100 100 97 79 100 100 100 100 100 100 100 100 100 100 100 77 99 96 92 53 87 84 94 98 85 68 82 98 100 100 100 100 100 100 100 99 100 100 100 100
100 100 100 100 100 100 100 100 100 65 100 100 100 100 97 80 100 91 84 100 96 85 75 51 39 17 73 97 100 100 100 93 98 82 88 100 100 100 95 91 100 100 100
100 100 100 100 100 100 100 100 100 100 100 99 90 100 100 100 97 70 72 63 17 51 80 100 100 100 100 100 78 100 100 100 100 100 100 100 100 100 100 100 100 100 100
100 100 100 100 100 100 100 100 100 100 100 100 100 100 100 100 100 100 99 73 65 100 80 99 100 82 82 96 98 100 100 100 100 100 100 100 100 100 100 100 100 100 100
100 100 100 100 100 100 100 100 100 100 100 100 100 100 100 100 100 100 100 46 100 100 58 83 100 100 100 100 100 100 100 92 96 100 99 100 100 100 100 100 100 100 100
99 55 78 100 100 100 100 100 100 100 100 100 100 100 100 100 100 100 100 100 100 100 98 100 100 100 100 100 41 90 100 100 100 100 100 100 99 99 100 100 100 100 100
4 3 10 45 67 76 44 81 70 100 100 100 100 99 100 98 89 97 99 97 99 100 83 82 2 13 52 71 9 26 4 4 77 61 4 14 65 9 1 60 99 100 100
23 48 4 0 2 6 6 20 8 5 13 13 29 9 17 5 17 77 11 2 0 0 0 4 2 0 0 0 0 0 0 0 0 0 0 6 48 2 0 0 0 3 0
8 10 99 8 4 1 2 2 3 91 31 22 97 87 3 1 0 0 2 3 4 3 0 0 0 0 0 0 0 0 0 0 0 0 0 0 0 0 0 0 0 4 1
0 11 39 94 92 1 23 100 76 2 3 15 51 98 96 89 55 5 35 56 34 5 5 5 4 4 5 5 5 5 5 6 5 4 4 0 1 0 5 5 30 5 88
0 1 44 98 100 100 68 58 28 70 100 100 80 3 68 86 98 20 60 98 83 72 62 40 40 10 8 44 8 100 100 100 100 98 68 24 5 5 11 17 90 100 99
32 69 100 72 64 100 96 6 77 100 57 100 86 10 97 35 40 45 36 100 91 66 100 72 87 100 66 67 85 77 82 5 5 5 5 16 29 77 55 100 100 38 11